Dewpoint
34 36 37 41 44 45 46 47 47 47 48 48 48 47 47 48 43 42 42 43 44 44 42 43 42 43 44 44 44 47 47 47 48 47 45 47 47 49 46 50 52 49 51
34 34 36 42 43 45 46 46 44 41 43 46 47 47 46 47 43 42 40 41 43 43 40 40 40 40 42 40 41 42 44 45 47 45 45 43 44 46 44 46 48 48 48
33 37 40 42 43 44 43 41 40 40 40 41 41 41 41 41 41 39 39 39 40 41 41 39 38 38 40 39 39 40 40 41 44 44 46 42 41 44 45 44 47 46 46
34 40 40 41 42 41 39 39 39 39 39 39 39 38 38 37 38 39 38 37 38 39 39 39 37 37 38 37 38 38 39 40 39 43 45 44 45 43 41 45 44 46 45
37 39 39 40 39 37 37 37 38 37 37 37 36 36 35 37 36 36 34 35 36 37 37 37 36 35 37 36 36 35 36 38 40 40 42 41 43 43 44 37 42 42 45
37 37 38 39 38 37 36 36 36 36 36 35 34 34 33 34 34 34 34 35 35 36 36 36 36 35 35 35 35 35 35 35 36 38 38 39 40 41 41 39 37 39 41
35 36 37 37 37 35 35 36 35 35 35 34 34 33 34 34 33 33 34 33 34 34 34 35 35 35 35 35 35 34 33 34 35 35 35 38 39 39 40 41 40 40 38
34 35 36 36 36 35 33 35 35 34 34 34 33 33 33 34 34 34 34 34 34 34 35 35 35 35 34 34 34 34 34 33 34 33 34 35 36 39 40 40 39 36 34
33 35 35 35 34 34 33 33 34 33 34 33 33 33 33 32 32 33 33 34 34 33 32 33 34 34 34 34 34 34 33 33 33 34 34 34 36 39 38 39 40 39 34
33 34 32 31 32 34 34 34 34 34 33 32 31 31 30 30 31 31 30 31 32 32 32 33 33 33 33 33 33 33 33 32 33 33 33 33 34 34 37 39 40 40 39
30 28 28 29 29 29 30 28 27 26 26 27 27 26 28 28 29 29 29 30 31 31 32 33 33 33 33 33 32 32 32 32 32 32 32 32 32 32 34 38 39 37 37
27 26 19 16 16 18 20 21 23 24 25 25 26 26 26 27 26 27 27 28 29 31 32 32 33 33 33 33 32 32 31 30 30 30 31 30 28 30 32 36 35 36 36
26 17 14 14 14 14 16 18 20 22 24 23 25 25 26 26 26 26 27 28 29 29 30 30 31 32 32 32 32 31 31 30 30 30 30 29 29 30 31 34 34 34 34
20 15 14 13 13 15 17 18 20 22 23 24 25 25 25 25 25 26 27 27 28 28 28 28 29 32 31 31 31 31 30 29 29 30 30 29 29 30 31 33 33 33 33
14 13 12 13 14 16 17 19 20 21 22 23 24 24 25 25 25 26 26 26 27 26 27 27 28 28 29 27 27 30 29 28 28 29 29 30 32 34 34 33 33 33 33
12 11 12 13 15 16 17 18 19 20 21 21 22 23 24 24 24 25 25 25 25 26 26 26 27 28 26 28 30 30 30 30 29 29 30 31 33 34 36 35 37 36 34
11 12 13 14 15 16 17 18 19 20 21 21 22 22 23 23 23 23 22 21 22 23 23 23 25 26 25 30 30 31 29 31 30 30 30 30 30 33 32 34 35 35 35
12 13 14 15 16 17 18 19 21 21 22 21 22 22 22 22 21 20 18 18 19 19 19 19 21 23 23 29 30 30 28 30 30 30 30 30 30 30 31 31 32 32 33
14 14 15 16 17 17 18 19 19 19 20 20 20 20 21 20 18 17 17 17 18 18 17 17 19 21 21 27 29 28 26 28 28 29 29 29 29 32 33 31 31 32 32
14 14 15 16 17 17 18 18 18 19 19 19 19 20 21 19 17 17 17 17 17 16 16 16 16 20 17 24 27 27 25 26 26 26 28 33 31 34 34 31 32 31 32
15 16 17 17 17 18 18 18 18 18 19 21 21 20 19 18 16 16 16 16 16 16 17 17 17 17 18 19 27 28 23 24 23 24 25 27 31 32 32 32 31 32 32
15 15 15 15 17 19 19 18 18 19 19 19 18 16 15 16 17 18 19 19 19 19 18 18 18 19 18 24 26 27 28 27 23 23 24 26 30 31 32 32 33 33 33
13 14 14 15 17 18 18 17 16 16 16 15 14 17 18 18 19 20 21 21 20 19 19 19 19 20 21 21 26 27 27 27 23 23 25 29 31 32 30 31 31 31 30
13 14 14 14 14 14 15 15 15 15 15 16 17 19 19 20 21 21 21 21 20 20 20 21 22 23 24 26 25 23 23 25 24 25 25 26 28 29 29 29 29 28 30
13 13 13 14 14 14 14 14 16 17 17 19 19 20 20 21 22 22 22 22 23 24 23 25 27 29 28 28 30 30 31 32 32 31 27 25 25 25 25 26 26 27 28
12 14 14 14 14 15 16 17 18 19 19 20 21 22 23 23 24 23 23 26 27 28 29 29 28 26 30 32 33 32 33 33 32 29 29 29 28 28 27 27 27 27 28
Lifted_Index
11 12 13 13 12 11 11 11 11 12 12 12 12 12 11 12 12 13 14 14 14 14 15 15 16 16 16 16 16 15 15 15 14 13 13 12 12 11 11 10 10 10 10
11 11 12 12 12 11 11 11 12 13 13 12 12 12 12 12 13 13 14 15 15 15 16 16 16 16 16 16 15 15 15 14 14 14 13 12 12 12 12 11 10 10 10
11 11 12 12 12 11 12 12 13 13 13 13 13 13 13 13 13 14 15 15 16 16 17 17 17 16 16 15 15 15 15 14 14 14 13 12 12 12 12 12 11 11 11
11 11 12 12 12 11 12 13 13 13 13 13 13 13 13 13 14 14 15 16 17 17 17 17 17 16 16 16 15 15 15 15 14 14 14 13 13 12 12 12 12 12 13
11 11 11 12 12 12 13 13 13 13 13 13 13 13 13 14 14 15 15 16 17 17 17 17 17 17 16 16 16 15 15 15 15 15 15 14 14 13 12 12 12 13 14
11 11 11 11 12 13 13 13 13 13 13 13 13 13 14 14 14 15 15 16 17 17 18 17 17 17 17 16 16 16 15 15 15 16 16 16 15 14 14 13 13 13 13
11 11 11 12 12 13 13 13 13 13 13 13 13 13 14 14 15 15 16 16 16 17 17 16 16 16 16 16 16 16 16 16 16 16 16 17 17 16 15 15 14 14 14
10 10 11 12 12 12 12 12 12 12 12 13 13 14 14 15 15 15 15 16 16 16 16 16 16 16 16 16 16 16 16 16 16 16 16 17 17 17 16 16 15 15 14
10 10 11 12 12 12 12 12 12 12 12 13 13 14 15 15 15 15 15 15 16 16 16 16 16 16 16 16 16 16 16 16 15 15 16 16 16 17 16 16 15 15 14
9 10 11 11 12 12 12 12 12 12 12 13 13 14 15 15 15 15 16 16 17 17 18 17 17 16 16 16 15 15 15 15 15 15 15 15 16 16 16 15 15 14 14
9 9 10 11 11 11 11 11 12 12 13 13 14 14 14 15 15 16 17 18 19 19 19 19 18 17 16 15 15 15 15 15 15 14 15 15 15 15 14 14 13 13 14
9 9 9 10 10 11 11 12 12 13 13 14 14 14 15 16 17 18 19 20 20 20 20 19 18 17 16 15 14 14 14 14 14 14 14 14 14 14 13 12 12 12 12
8 9 9 10 10 11 12 13 14 14 15 15 15 16 17 18 19 19 20 20 20 20 20 19 19 18 16 15 14 13 13 12 12 13 13 13 13 12 12 11 11 10 10
8 9 9 10 11 12 13 14 15 16 17 17 18 18 19 19 19 19 19 20 19 19 19 19 18 17 16 15 14 12 11 10 10 10 11 11 11 10 10 10 9 9 9
8 9 10 11 12 13 15 16 17 18 18 19 19 19 19 19 19 18 19 19 19 19 18 18 17 16 15 14 12 10 9 8 8 8 8 8 8 8 7 7 7 7 7
9 9 10 12 13 15 16 17 18 18 19 19 18 18 18 18 18 18 18 18 18 17 17 16 15 14 12 11 9 8 7 7 6 6 7 6 6 6 5 5 5 5 5
9 10 12 14 15 17 17 18 18 18 19 18 18 18 18 18 18 18 18 17 17 16 15 14 12 11 10 9 8 7 6 6 5 6 6 6 5 5 4 4 4 4 4
11 12 14 16 17 17 18 18 18 19 19 19 19 18 18 18 18 17 16 15 15 14 12 11 10 9 9 8 7 7 6 5 5 5 5 5 5 5 4 3 3 3 3
14 15 16 17 17 18 18 18 18 18 18 18 18 18 17 17 16 15 14 13 12 11 11 10 9 9 9 8 7 6 6 5 5 5 5 5 4 4 3 2 2 2 2
16 16 17 17 17 17 18 18 18 18 18 17 17 17 16 15 15 13 12 11 11 10 10 10 10 9 9 8 8 7 6 5 5 5 5 4 4 3 2 1 1 1 1
16 16 16 17 17 17 17 17 17 17 17 17 16 15 15 14 13 12 11 10 10 10 10 10 10 10 9 9 8 7 6 6 5 5 5 4 3 3 2 1 1 0 0
15 15 16 16 17 17 17 17 17 17 16 16 15 14 13 12 11 10 10 10 10 10 10 10 10 10 9 9 8 7 7 6 6 5 5 4 3 3 2 2 1 0 0
15 15 16 16 16 17 16 16 16 16 15 14 13 12 12 11 10 10 10 10 10 10 10 10 10 10 10 9 8 7 7 6 6 6 5 4 4 3 3 2 1 1 1
15 16 16 16 16 16 16 15 15 14 14 13 12 11 10 10 10 10 10 10 10 10 10 10 10 10 9 8 7 7 6 6 6 5 5 5 4 3 3 2 2 1 1
16 16 16 16 15 15 15 14 14 13 12 11 10 10 10 10 10 10 10 10 10 10 10 10 9 9 9 8 7 6 6 5 5 5 5 4 4 3 3 3 2 2 2
16 16 16 16 15 15 14 13 13 13 12 10 10 10 10 10 10 10 10 10 10 10 10 10 9 9 8 8 7 6 5 5 5 5 5 4 4 3 3 3 3 3 3